Powrót do katalogu

STARLINK-11281

AktywnyŁącznośćVLEO
NORAD 60996·PAYLOAD·🇺🇸 United States

Wystrzelony Sep 5, 2024 z Cape Canaveral Space Force Station

Loading…

Następne Przeloty (najbliższe 24 godziny)

TLE

ŚwieżeSource: CelesTrak SupGP

Epoka: Sep 14, 2026, 20:52 UTC

1 60996C 24158G   26257.86993056  .00042119  00000+0  34698-3 0  2574
2 60996  53.1571  68.8592 0001093  84.8493 325.5268 15.69686314    12

Śledź STARLINK-11281 w czasie rzeczywistym z AllMySat

Download on the App Store